This is the latest recevied weather packets stored in our database for station/object KD4PMP. If no packets are shown the sender has not sent any weather packets the latest 10 day(s).
| Time | Temp. | Humidity | Pressure | Rain* | Wind** | Luminosity | Snow |
|---|---|---|---|---|---|---|---|
| 1788400729 | 30° C | 69% | 1014.6 hPa | 0 mm | - | - | - |
| 1788400122 | 30.56° C | 68% | 1014.6 hPa | 0 mm | - | - | - |
| 1788399516 | 30.56° C | 67% | 1014.5 hPa | 0 mm | - | - | - |
| 1788398910 | 31.11° C | 65% | 1014.6 hPa | 0 mm | - | - | - |
| 1788398303 | 31.11° C | 63% | 1014.5 hPa | 0 mm | - | - | - |
| 1788397697 | 31.67° C | 62% | 1014.4 hPa | 0 mm | - | - | - |
| 1788397090 | 32.22° C | 61% | 1014.4 hPa | 0 mm | - | - | - |
| 1788396484 | 32.22° C | 59% | 1014.3 hPa | 0 mm | - | - | - |
| 1788395878 | 32.78° C | 58% | 1014.3 hPa | 0 mm | - | - | - |
| 1788395271 | 33.33° C | 57% | 1014.2 hPa | 0 mm | - | - | - |
| 1788394665 | 34.44° C | 56% | 1014.2 hPa | 0 mm | - | - | - |
| 1788394059 | 34.44° C | 53% | 1014.1 hPa | 0 mm | - | - | - |
| 1788393452 | 35° C | 51% | 1014.2 hPa | 0 mm | - | - | - |
| 1788392846 | 35.56° C | 50% | 1014.3 hPa | 0 mm | - | - | - |
| 1788392239 | 36.11° C | 50% | 1014.3 hPa | 0 mm | - | - | - |
| 1788391633 | 36.67° C | 49% | 1014.2 hPa | 0 mm | - | - | - |
| 1788391027 | 36.67° C | 47% | 1014.2 hPa | 0 mm | - | - | - |
| 1788390420 | 37.22° C | 47% | 1014.2 hPa | 0 mm | - | - | - |
| 1788389814 | 37.78° C | 47% | 1014.2 hPa | 0 mm | - | - | - |
| 1788389207 | 37.78° C | 46% | 1014.1 hPa | 0 mm | - | - | - |
| 1788388601 | 37.78° C | 47% | 1014.2 hPa | 0 mm | - | - | - |
| 1788387994 | 38.33° C | 45% | 1014.4 hPa | 0 mm | - | - | - |
| 1788387388 | 38.33° C | 44% | 1014.3 hPa | 0 mm | - | - | - |
| 1788386782 | 38.89° C | 44% | 1014.5 hPa | 0 mm | - | - | - |
| 1788386175 | 38.89° C | 44% | 1014.5 hPa | 0 mm | - | - | - |
* Rain latest hour (hover to see other rain measurements)
** Current wind speed in m/s (hover to see current wind gust speed)